(346916) = 1995 WD19 = 2009 WD204

Discovered at Kitt Peak on 2009-11-16 by Spacewatch.

Orbit

Orbit type: Main Belt

Note: WebGL enabled browser required.

epoch2023-09-13.0
epoch JD2460200.5
perihelion date2023-01-29.29933
perihelion JD2459973.79933
argument of perihelion (°)270.35448
ascending node (°)79.82685
inclination (°)7.57335
eccentricity0.1412087
perihelion distance (AU)1.9650580
Tisserand w.r.t. Jupiter3.6
ΔV w.r.t. Earth (km/sec)9.0
semimajor axis (AU)2.2881670
mean anomaly (°)64.55428
mean daily motion (°/day)0.28475560
aphelion distance (AU)2.611
period (years)3.46
P-vector [x]0.97676664
P-vector [y]-0.10262093
P-vector [z]-0.18813790
Q-vector [x]0.17058361
Q-vector [y]0.90371006
Q-vector [z]0.39269500
absolute magnitude17.63
phase slope0.15
uncertainty0
referenceMPEC 2023-Y46
observations used147
oppositions11
arc length (days)10256
first opposition used1995
last opposition used2023
residual rms (arc-secs)0.81
perturbers coarse indicatorM-v
perturbers precise indicator003Ek
first observation date used1995-11-17.0
last observation date used2023-12-16.0
computer nameMPCLINUX
Minimum Orbit Intersection Distances (in AU)
for orbit epoch: 2460200.5, reference: E2023-Y46
Mercury1.57786
Venus1.24096
Earth0.97601
Mars0.60229
Jupiter2.8011
Saturn6.65368
Uranus15.8573
Neptune27.736

Observations

153 total observations over interval: 1995 11 17.36597 – 2023 12 16.457635
These data are available for download (format description).

